User: anonymous   Login
Location: Unspecified
(0.0000°N, 0.0000°E)
Time: 23:29:21
(UTC+00:00)
Language:

STARLINK-5118 - Orbit

View from above orbital plane
View from above orbital plane
View from above satellite
View from above satellite

Ground track
Ground track

The orbit is defined by the following mean orbital elements,

1 53991U          26145.46621086 +.00000000 +00000-0 -24034-4 0 00009
2 53991  53.2135 219.3897 0000988  74.5715 285.5386 15.08865087    06
Epoch (UTC): 25 May 2026 11:11:20
Eccentricity: 0.0000988
inclination: 53.2135°
perigee height: 539 km
apogee height: 540 km
right ascension of ascending node: 219.3897°
argument of perigee: 74.5715°
revolutions per day: 15.08865087
mean anomaly at epoch: 285.5386°

The dashed part of the orbit path shows where the satellite is in the earth's shadow,  

DLR